Tracking 31027 objects as of 19-Jul-2025
HD Live streaming from Space Station
objects crossing your sky now

STARLINK-32190

Track STARLINK-32190 now!
10-day predictions
STARLINK-32190 is classified as:


NORAD ID: 60318
Int'l Code: 2024-133T
Perigee: 481.5 km
Apogee: 483.3 km
Inclination: 53.2 °
Period: 94.1 minutes
Semi major axis: 6853 km
RCS: Unknown
Launch date: July 28, 2024
Source: United States (US)
Launch site: AIR FORCE WESTERN TEST RANGE (AFWTR)
Your satellite tracking list
FENGYUN 1C DEB
Track 1 satellite(s)




NASA's NSSDC Master Catalog

Two Line Element Set (TLE):
1 60318U 24133T   25199.48215150 -.00000230  00000-0  43498-5 0  9992
2 60318  53.1605 304.8217 0001255  86.5919 273.5225 15.30186460 55781
Source of the keplerian elements: AFSPC